星链-31345 (STARLINK-31345 )

导读

STARLINK-31345是美国SpaceX星链星座中的一颗卫星,属于二代星V2.0 Mini型号,于2024年2月10日由猎鹰九号运载火箭,在加州范登堡太空军基地发射入轨,单星发射质量约790千克,通信速率可达165Gb/s。它是星链星座部署过程中的一员,助力全球无缝宽带覆盖目标实现,服务已延伸至航空、航运、应急通信等多个领域。

基本信息
目录编号:
58941
目录名称:
STARLINK-31345
国际标识:
2024-027L
轨道中心:
EARTH
卫星名称:
星链-31345
卫星全名:
星链-31345 (STARLINK-31345 )
卫星状态:
在轨 (已飞行937 天)
发射日期:
2024-02-10 UTC
国别 :
美国 (US)
星等 :
--
轨道信息
数据来源 国际轨道数据 AOE轨道数据
星历时间 2026-09-03T12:09:49+0800
1天前
查看轨道信息
2026-08-31T12:00:00+0800
4天前
查看轨道信息
半长轴 6840.854km 6840.882km
偏心率 0.0001458 0.0001307
轨道倾角 53.161° 53.158°
近地点辐角 89.291° 76.164°
升交点赤经 204.399° 218.455°
平近点角 270.826° 225.581°
近地点 461.719km 461.85km
远地点 463.715km 463.64km
周期 93.848分钟 93.849分钟
每日圈数 15.343956 15.343862
详细信息
固有亮度:
5
最大亮度:
0.3
卫星平台:
Starlink v2.0 mini
覆盖范围:
全球
运营商:
太空探索技术公司
运营商所在国:
美国
制造商(研发单位):
太空探索技术公司
制造商所在国:
美国
使用方式:
暂无
卫星简介
星链(Starlink)计划是由太空探索技术公司(SpaceX)提出的一个巨型低轨卫星互联网星座项目,计划在2019年至2024年间在太空搭建由约1.2万颗卫星组成的“星链”网络,其中1584颗将部署在地球上空550千米处的近地轨道,并从2020年开始工作。该卫星仍在工作。
2D轨道图
3D轨道图
轨道高度分析图
轨道倾角分析图
轨道综合分析图
查看轨道综合分析图
交会数据列表
事件ID 空间交会对象 最接近时刻(TCA) 交会距离 交会风险概率(CRP) 交会风险指数(CRI) 操作
CDM_260905-021205-302505-894121
2026-09-05T
02:12:07+0000
2.656 km
极远距离
1.402704E-6 低风险 0.38
CDM_260903-185605-209005-894122
2026-09-03T
18:56:11+0000
2.709 km
极远距离
1.360784E-6 低风险 0.38